THY6390 EDDF-LTBJ

Flight info

Callsign THY6390
Flight time 2h 41m
Altitude 37000
Route CINDY8S/18 CINDY Z74 LAMPU DCT NOMBO Y161 MAH DCT LATLO DCT OBEDI DCT CEPRA DCT PODET DCT MOSAV DCT SOSEK DCT NISVA N131 USALI DCT RODIP UN131 DUGLA G80 BERGO BERGO1E
Aircraft B77L/H-SDE1E2E3FGHIJ2J3J4J5M1RWXY/LB1D1

Departure

Time 2026-05-01 12:19
Airport Frankfurt Main Airport (EDDF)

Arrival

Time 2026-05-01 15:01
Airport Adnan Menderes International Airport (LTBJ)
Time Latitude Longitude Altitude Speed Heading
2026-05-01 12:19 49.97179 8.59377 2712 ft 226 kts 119°
2026-05-01 12:19 49.96409 8.61634 3354 ft 240 kts 118°
2026-05-01 12:19 49.95605 8.63969 4171 ft 249 kts 120°
2026-05-01 12:19 49.94787 8.66357 4992 ft 253 kts 121°
2026-05-01 12:20 49.93959 8.68768 5847 ft 256 kts 124°
2026-05-01 12:20 49.92738 8.70771 6580 ft 258 kts 147°
2026-05-01 12:20 49.91224 8.72310 7172 ft 264 kts 147°
2026-05-01 12:20 49.89720 8.73936 8076 ft 264 kts 146°
2026-05-01 12:21 49.88299 8.75804 8722 ft 268 kts 128°
2026-05-01 12:21 49.87377 8.78339 9515 ft 271 kts 120°
2026-05-01 12:21 49.86468 8.80915 10396 ft 274 kts 121°
2026-05-01 12:21 49.85508 8.83539 10912 ft 289 kts 121°
2026-05-01 12:22 49.84465 8.86382 11104 ft 317 kts 121°
2026-05-01 12:22 49.83324 8.89525 11315 ft 344 kts 120°
2026-05-01 12:22 49.82157 8.92753 11755 ft 361 kts 120°
2026-05-01 12:22 49.80865 8.96332 12632 ft 368 kts 120°
2026-05-01 12:23 49.79585 8.99855 13623 ft 374 kts 120°
2026-05-01 12:23 49.78297 9.03382 14555 ft 378 kts 120°
2026-05-01 12:23 49.77036 9.06965 15383 ft 381 kts 115°
2026-05-01 12:23 49.76018 9.10775 16260 ft 384 kts 109°
2026-05-01 12:24 49.75246 9.14735 17173 ft 385 kts 107°
2026-05-01 12:24 49.74254 9.18609 17925 ft 392 kts 118°
2026-05-01 12:24 49.72702 9.22387 18681 ft 399 kts 127°
2026-05-01 12:24 49.70868 9.25624 19330 ft 402 kts 132°
2026-05-01 12:25 49.68968 9.28847 20007 ft 407 kts 131°
2026-05-01 12:25 49.65167 9.35466 21328 ft 419 kts 130°
2026-05-01 12:25 49.63189 9.38792 22067 ft 423 kts 134°
2026-05-01 12:26 49.60958 9.41822 22664 ft 432 kts 141°
2026-05-01 12:26 49.55823 9.46964 23748 ft 447 kts 149°
2026-05-01 12:26 49.53112 9.49381 24306 ft 452 kts 149°
2026-05-01 12:27 49.50387 9.51830 24898 ft 455 kts 149°
2026-05-01 12:27 49.44903 9.56822 26053 ft 461 kts 148°
2026-05-01 12:28 49.39332 9.61923 27101 ft 470 kts 148°
2026-05-01 12:28 49.36481 9.64537 27616 ft 474 kts 147°
2026-05-01 12:28 49.31275 9.70721 28560 ft 479 kts 135°
2026-05-01 12:29 49.28910 9.74365 29053 ft 483 kts 134°
2026-05-01 12:29 49.26507 9.78099 29520 ft 486 kts 134°
2026-05-01 12:29 49.21700 9.85509 30316 ft 494 kts 133°
2026-05-01 12:30 49.16845 9.92915 31416 ft 491 kts 134°
2026-05-01 12:30 49.14391 9.96645 31907 ft 490 kts 134°
2026-05-01 12:30 49.12004 10.00273 32383 ft 489 kts 134°
2026-05-01 12:31 49.09562 10.03982 32853 ft 489 kts 134°
2026-05-01 12:31 49.07143 10.07638 33258 ft 489 kts 134°
2026-05-01 12:31 49.04717 10.11264 33765 ft 488 kts 135°
2026-05-01 12:31 49.02220 10.14784 34181 ft 489 kts 136°
2026-05-01 12:32 48.99696 10.18267 34592 ft 488 kts 136°
2026-05-01 12:32 48.94687 10.25261 35475 ft 484 kts 135°
2026-05-01 12:32 48.92242 10.28704 35753 ft 485 kts 136°
2026-05-01 12:33 48.89766 10.32196 36107 ft 484 kts 136°
2026-05-01 12:33 48.87299 10.35680 36461 ft 483 kts 136°
2026-05-01 12:33 48.85639 10.38015 36698 ft 483 kts 136°
2026-05-01 12:33 48.83176 10.41479 36981 ft 483 kts 135°
2026-05-01 12:34 48.80790 10.45180 37291 ft 482 kts 131°
2026-05-01 12:34 48.78502 10.48913 37322 ft 486 kts 131°
2026-05-01 12:34 48.73854 10.56469 37364 ft 484 kts 131°
2026-05-01 12:35 48.69221 10.63777 37340 ft 478 kts 133°
2026-05-01 12:35 48.64589 10.70995 37360 ft 477 kts 132°
2026-05-01 12:36 48.60029 10.78287 37362 ft 477 kts 132°
2026-05-01 12:36 48.55470 10.85574 37348 ft 478 kts 131°
2026-05-01 12:37 48.50875 10.92940 37363 ft 479 kts 131°
2026-05-01 12:37 48.46270 11.00220 37351 ft 480 kts 132°
2026-05-01 12:38 48.41601 11.07436 37361 ft 481 kts 132°
2026-05-01 12:38 48.36940 11.14665 37342 ft 482 kts 132°
2026-05-01 12:39 48.32282 11.21916 37330 ft 482 kts 132°
2026-05-01 12:39 48.27662 11.29207 37330 ft 480 kts 128°
2026-05-01 12:40 48.23847 11.37342 37339 ft 475 kts 117°
2026-05-01 12:40 48.20609 11.45970 37347 ft 475 kts 117°
2026-05-01 12:41 48.17365 11.54595 37344 ft 475 kts 117°
2026-05-01 12:41 48.14122 11.63145 37370 ft 475 kts 117°
2026-05-01 12:42 48.10823 11.71795 37359 ft 475 kts 117°
2026-05-01 12:42 48.07543 11.80359 37345 ft 474 kts 117°
2026-05-01 12:43 48.04262 11.88901 37344 ft 473 kts 117°
2026-05-01 12:43 48.00975 11.97430 37363 ft 473 kts 117°
2026-05-01 12:44 47.97689 12.05936 37340 ft 472 kts 117°
2026-05-01 12:45 47.91066 12.22995 37335 ft 471 kts 117°
2026-05-01 12:45 47.87774 12.31436 37333 ft 471 kts 117°
2026-05-01 12:46 47.84475 12.39869 37330 ft 471 kts 117°
2026-05-01 12:46 47.81169 12.48299 37334 ft 471 kts 117°
2026-05-01 12:47 47.77844 12.56757 37338 ft 472 kts 117°
2026-05-01 12:47 47.74499 12.65255 37338 ft 472 kts 117°
2026-05-01 12:48 47.71171 12.73675 37351 ft 473 kts 117°
2026-05-01 12:48 47.67500 12.81815 37336 ft 477 kts 126°
2026-05-01 12:49 47.62902 12.88964 37328 ft 479 kts 133°
2026-05-01 12:49 47.58119 12.95855 37338 ft 479 kts 133°
2026-05-01 12:50 47.53366 13.02797 37334 ft 480 kts 132°
2026-05-01 12:50 47.48626 13.09773 37310 ft 481 kts 131°
2026-05-01 12:51 47.43885 13.16745 37321 ft 481 kts 131°
2026-05-01 12:52 47.36752 13.27205 37307 ft 481 kts 132°
2026-05-01 12:52 47.30717 13.36953 37308 ft 474 kts 122°
2026-05-01 12:53 47.24982 13.48674 37328 ft 474 kts 122°
2026-05-01 12:54 47.21033 13.56708 37330 ft 474 kts 122°
2026-05-01 12:54 47.15199 13.68491 37337 ft 468 kts 122°
2026-05-01 12:55 47.09385 13.80155 37329 ft 472 kts 122°
2026-05-01 12:56 47.05493 13.87953 37331 ft 474 kts 122°
2026-05-01 12:56 47.01612 13.95706 37322 ft 475 kts 122°
2026-05-01 12:57 46.97638 14.03617 37328 ft 477 kts 122°
2026-05-01 12:57 46.91723 14.15351 37345 ft 478 kts 122°
2026-05-01 12:58 46.87770 14.23161 37348 ft 477 kts 122°
2026-05-01 12:59 46.81830 14.34857 37361 ft 475 kts 122°
2026-05-01 12:59 46.75900 14.46490 37365 ft 473 kts 122°
2026-05-01 13:00 46.69895 14.58222 37351 ft 472 kts 122°
2026-05-01 13:01 46.64028 14.69637 37361 ft 472 kts 121°
2026-05-01 13:02 46.58210 14.81361 37316 ft 468 kts 116°
2026-05-01 13:07 46.21128 15.70879 37348 ft 468 kts 115°
2026-05-01 13:08 46.18306 15.77565 37341 ft 468 kts 115°
2026-05-01 13:08 46.14895 15.85625 37344 ft 468 kts 115°
2026-05-01 13:09 46.11474 15.93685 37346 ft 468 kts 115°
2026-05-01 13:09 46.08048 16.01733 37344 ft 468 kts 116°
2026-05-01 13:10 46.04630 16.09738 37349 ft 469 kts 116°
2026-05-01 13:10 46.01206 16.17734 37348 ft 470 kts 116°
2026-05-01 13:11 45.97766 16.25746 37349 ft 471 kts 116°
2026-05-01 13:11 45.94316 16.33758 37339 ft 471 kts 116°
2026-05-01 13:12 45.90863 16.41749 37364 ft 471 kts 116°
2026-05-01 13:12 45.87403 16.49739 37344 ft 471 kts 116°
2026-05-01 13:13 45.83933 16.57725 37342 ft 471 kts 116°
2026-05-01 13:13 45.80460 16.65697 37343 ft 471 kts 116°
2026-05-01 13:14 45.76984 16.73653 37377 ft 471 kts 116°
2026-05-01 13:14 45.73503 16.81599 37349 ft 471 kts 116°
2026-05-01 13:15 45.70018 16.89530 37336 ft 470 kts 116°
2026-05-01 13:15 45.66528 16.97452 37342 ft 470 kts 116°
2026-05-01 13:16 45.63041 17.05344 37375 ft 470 kts 117°
2026-05-01 13:16 45.59472 17.13400 37342 ft 471 kts 117°
2026-05-01 13:17 45.52431 17.29223 37343 ft 471 kts 117°
2026-05-01 13:18 45.47122 17.41095 37343 ft 471 kts 117°
2026-05-01 13:18 45.43583 17.48984 37347 ft 472 kts 117°
2026-05-01 13:19 45.40048 17.56842 37342 ft 473 kts 117°
2026-05-01 13:20 45.34720 17.68641 37374 ft 473 kts 118°
2026-05-01 13:20 45.31150 17.76519 37359 ft 474 kts 118°
2026-05-01 13:21 45.25772 17.88350 37338 ft 475 kts 118°
2026-05-01 13:21 45.22184 17.96211 37338 ft 475 kts 118°
2026-05-01 13:22 45.18586 18.04076 37318 ft 476 kts 118°
2026-05-01 13:22 45.14976 18.11947 37333 ft 476 kts 118°
2026-05-01 13:23 45.11338 18.19854 37331 ft 476 kts 118°
2026-05-01 13:23 45.07698 18.27746 37337 ft 477 kts 118°
2026-05-01 13:24 45.04046 18.35639 37330 ft 479 kts 119°
2026-05-01 13:25 44.98548 18.47484 37334 ft 482 kts 119°
2026-05-01 13:25 44.94857 18.55408 37332 ft 483 kts 119°
2026-05-01 13:26 44.91123 18.63404 37343 ft 484 kts 120°
2026-05-01 13:26 44.87395 18.71362 37330 ft 486 kts 120°
2026-05-01 13:27 44.84349 18.77849 37324 ft 486 kts 120°
2026-05-01 13:27 44.78663 18.89917 37322 ft 486 kts 120°
2026-05-01 13:28 44.73032 19.01820 37315 ft 487 kts 120°
2026-05-01 13:29 44.65496 19.17672 37323 ft 487 kts 120°
2026-05-01 13:31 44.54123 19.41433 37308 ft 488 kts 121°
2026-05-01 13:32 44.44639 19.61100 37306 ft 490 kts 122°
2026-05-01 13:33 44.34971 19.81013 37329 ft 492 kts 122°
2026-05-01 13:34 44.27237 19.96844 37304 ft 494 kts 122°
2026-05-01 13:35 44.21382 20.08773 37304 ft 495 kts 122°
2026-05-01 13:36 44.15547 20.20611 37307 ft 496 kts 122°
2026-05-01 13:36 44.09704 20.32422 37300 ft 496 kts 123°
2026-05-01 13:37 44.05714 20.40460 37321 ft 496 kts 123°
2026-05-01 13:37 44.01776 20.48371 37288 ft 497 kts 123°
2026-05-01 13:38 43.95843 20.60254 37297 ft 497 kts 123°
2026-05-01 13:39 43.91889 20.68148 37301 ft 497 kts 124°
2026-05-01 13:39 43.87894 20.76110 37287 ft 498 kts 123°
2026-05-01 13:40 43.83961 20.83937 37283 ft 498 kts 123°
2026-05-01 13:40 43.79999 20.91802 37285 ft 498 kts 124°
2026-05-01 13:41 43.76190 20.99867 37304 ft 496 kts 120°
2026-05-01 13:41 43.72649 21.08155 37287 ft 498 kts 120°
2026-05-01 13:42 43.69138 21.16409 37288 ft 498 kts 120°
2026-05-01 13:42 43.65602 21.24682 37285 ft 499 kts 120°
2026-05-01 13:43 43.62054 21.32943 37289 ft 500 kts 120°
2026-05-01 13:43 43.58498 21.41192 37284 ft 501 kts 120°
2026-05-01 13:44 43.54927 21.49452 37285 ft 501 kts 120°
2026-05-01 13:44 43.51346 21.57715 37287 ft 502 kts 120°
2026-05-01 13:45 43.48346 21.64618 37276 ft 503 kts 121°
2026-05-01 13:45 43.44695 21.72997 37291 ft 503 kts 120°
2026-05-01 13:46 43.41092 21.81244 37293 ft 504 kts 121°
2026-05-01 13:46 43.37468 21.89515 37303 ft 504 kts 121°
2026-05-01 13:47 43.33844 21.97764 37288 ft 505 kts 121°
2026-05-01 13:47 43.30307 22.05794 37292 ft 504 kts 121°
2026-05-01 13:48 43.26513 22.14381 37276 ft 505 kts 121°
2026-05-01 13:48 43.22847 22.22654 37281 ft 505 kts 121°
2026-05-01 13:49 43.19184 22.30902 37265 ft 506 kts 121°
2026-05-01 13:49 43.15525 22.39118 37266 ft 506 kts 121°
2026-05-01 13:50 43.11830 22.47396 37260 ft 505 kts 122°
2026-05-01 13:50 43.08126 22.55673 37264 ft 505 kts 122°
2026-05-01 13:51 43.04426 22.63931 37268 ft 505 kts 122°
2026-05-01 13:51 43.00714 22.72198 37276 ft 505 kts 122°
2026-05-01 13:52 42.96752 22.80063 37282 ft 506 kts 130°
2026-05-01 13:52 42.91729 22.87074 37258 ft 504 kts 139°
2026-05-01 13:53 42.86550 22.93527 37273 ft 504 kts 139°
2026-05-01 13:53 42.78689 23.03443 37264 ft 506 kts 139°
2026-05-01 13:54 42.73726 23.09757 37283 ft 507 kts 139°
2026-05-01 13:54 42.68381 23.16547 37287 ft 508 kts 139°
2026-05-01 13:55 42.63219 23.23085 37291 ft 510 kts 139°
2026-05-01 13:55 42.58723 23.28764 37288 ft 510 kts 139°
2026-05-01 13:56 42.53482 23.35369 37265 ft 510 kts 139°
2026-05-01 13:56 42.48277 23.41915 37284 ft 510 kts 139°
2026-05-01 13:57 42.42897 23.48670 37271 ft 511 kts 140°
2026-05-01 13:57 42.37674 23.55218 37275 ft 511 kts 140°
2026-05-01 13:58 42.32425 23.61792 37273 ft 511 kts 140°
2026-05-01 13:58 42.27196 23.68263 37274 ft 511 kts 140°
2026-05-01 13:59 42.21848 23.74713 37269 ft 511 kts 141°
2026-05-01 13:59 42.16509 23.81147 37267 ft 511 kts 141°
2026-05-01 14:00 42.11189 23.87585 37272 ft 511 kts 141°
2026-05-01 14:00 42.05875 23.94014 37269 ft 511 kts 141°
2026-05-01 14:01 42.00575 24.00414 37265 ft 511 kts 141°
2026-05-01 14:01 41.95255 24.06819 37271 ft 511 kts 141°
2026-05-01 14:02 41.89929 24.13217 37263 ft 512 kts 141°
2026-05-01 14:02 41.87269 24.16406 37419 ft 510 kts 141°
2026-05-01 14:02 41.84600 24.19602 37452 ft 514 kts 141°
2026-05-01 14:03 41.79265 24.25979 37465 ft 517 kts 141°
2026-05-01 14:03 41.73898 24.32386 37351 ft 516 kts 142°
2026-05-01 14:04 41.68543 24.38761 37244 ft 514 kts 142°
2026-05-01 14:04 41.64051 24.44099 37251 ft 511 kts 142°
2026-05-01 14:05 41.58711 24.50431 37237 ft 510 kts 142°
2026-05-01 14:05 41.53357 24.56769 37243 ft 509 kts 142°
2026-05-01 14:06 41.48108 24.62979 37225 ft 510 kts 142°
2026-05-01 14:06 41.42719 24.69336 37232 ft 511 kts 142°
2026-05-01 14:07 41.37380 24.75608 37225 ft 513 kts 142°
2026-05-01 14:08 41.29312 24.85125 37221 ft 515 kts 142°
2026-05-01 14:08 41.23936 24.91471 37201 ft 516 kts 142°
2026-05-01 14:09 41.18572 24.97789 37220 ft 517 kts 142°
2026-05-01 14:09 41.13062 25.04264 37217 ft 517 kts 143°
2026-05-01 14:10 41.07641 25.10619 37218 ft 518 kts 143°
2026-05-01 14:10 41.02242 25.16939 37216 ft 518 kts 143°
2026-05-01 14:11 40.96795 25.23309 37190 ft 518 kts 143°
2026-05-01 14:11 40.88612 25.32839 37204 ft 517 kts 143°
2026-05-01 14:12 40.83232 25.39079 37208 ft 517 kts 143°
2026-05-01 14:12 40.77899 25.45560 37198 ft 520 kts 137°
2026-05-01 14:13 40.73947 25.51562 37203 ft 521 kts 134°
2026-05-01 14:13 40.68468 25.60068 37174 ft 521 kts 135°
2026-05-01 14:14 40.63736 25.67336 37204 ft 521 kts 135°
2026-05-01 14:14 40.59002 25.74556 37197 ft 522 kts 135°
2026-05-01 14:15 40.54252 25.81799 37199 ft 522 kts 135°
2026-05-01 14:15 40.49493 25.89025 37209 ft 523 kts 135°
2026-05-01 14:16 40.44647 25.96255 37184 ft 523 kts 136°
2026-05-01 14:16 40.39821 26.03419 37215 ft 523 kts 136°
2026-05-01 14:17 40.35030 26.10554 37196 ft 524 kts 136°
2026-05-01 14:17 40.30178 26.17780 37203 ft 524 kts 136°
2026-05-01 14:18 40.25351 26.24955 37200 ft 525 kts 136°
2026-05-01 14:18 40.21338 26.30913 37200 ft 526 kts 136°
2026-05-01 14:19 40.15660 26.39329 37222 ft 526 kts 137°
2026-05-01 14:19 40.10668 26.46323 37211 ft 524 kts 141°
2026-05-01 14:20 40.02805 26.56247 37171 ft 523 kts 142°
2026-05-01 14:21 39.98465 26.61749 37148 ft 523 kts 142°
2026-05-01 14:21 39.93222 26.68450 37160 ft 524 kts 142°
2026-05-01 14:22 39.85419 26.78421 37165 ft 525 kts 142°
2026-05-01 14:22 39.80200 26.85078 37160 ft 525 kts 142°
2026-05-01 14:23 39.74961 26.91704 36885 ft 529 kts 143°
2026-05-01 14:23 39.72247 26.95038 36073 ft 536 kts 143°
2026-05-01 14:23 39.69534 26.98338 35307 ft 535 kts 144°
2026-05-01 14:24 39.66811 27.01654 34486 ft 536 kts 144°
2026-05-01 14:24 39.64087 27.04987 33482 ft 539 kts 143°
2026-05-01 14:24 39.61360 27.08340 32487 ft 540 kts 143°
2026-05-01 14:24 39.58637 27.11695 31518 ft 540 kts 143°
2026-05-01 14:25 39.55907 27.15042 30551 ft 540 kts 144°
2026-05-01 14:25 39.53119 27.18177 29816 ft 524 kts 153°
2026-05-01 14:25 39.49958 27.20254 29142 ft 494 kts 171°
2026-05-01 14:25 39.46685 27.21213 28459 ft 472 kts 182°
2026-05-01 14:26 39.43424 27.21348 27812 ft 452 kts 193°
2026-05-01 14:26 39.37412 27.20173 26603 ft 428 kts 198°
2026-05-01 14:26 39.34483 27.19582 26013 ft 424 kts 197°
2026-05-01 14:27 39.31581 27.19020 25430 ft 420 kts 197°
2026-05-01 14:27 39.28697 27.18478 24815 ft 417 kts 197°
2026-05-01 14:27 39.25831 27.17951 24280 ft 413 kts 196°
2026-05-01 14:28 39.20182 27.16930 23093 ft 406 kts 195°
2026-05-01 14:28 39.17393 27.16425 22487 ft 403 kts 195°
2026-05-01 14:28 39.14616 27.15924 21914 ft 400 kts 195°
2026-05-01 14:28 39.11879 27.15433 21371 ft 396 kts 195°
2026-05-01 14:29 39.09159 27.14947 20816 ft 392 kts 195°
2026-05-01 14:29 39.06466 27.14464 20297 ft 389 kts 195°
2026-05-01 14:30 38.98466 27.13574 18706 ft 384 kts 174°
2026-05-01 14:30 38.95880 27.14459 18244 ft 386 kts 171°
2026-05-01 14:30 38.93250 27.15342 17687 ft 396 kts 172°
2026-05-01 14:31 38.87795 27.17084 16541 ft 405 kts 172°
2026-05-01 14:31 38.85059 27.17958 15992 ft 401 kts 172°
2026-05-01 14:31 38.82363 27.18817 15501 ft 396 kts 172°
2026-05-01 14:31 38.79744 27.19656 15349 ft 381 kts 172°
2026-05-01 14:32 38.77209 27.20462 15186 ft 368 kts 172°
2026-05-01 14:32 38.74759 27.21236 15047 ft 357 kts 172°
2026-05-01 14:32 38.72414 27.21973 14902 ft 346 kts 173°
2026-05-01 14:32 38.70081 27.22703 14733 ft 336 kts 173°
2026-05-01 14:33 38.67834 27.23232 14587 ft 319 kts 186°
2026-05-01 14:33 38.65725 27.22778 14223 ft 299 kts 204°
2026-05-01 14:33 38.63767 27.21999 13907 ft 293 kts 202°
2026-05-01 14:33 38.61814 27.21287 13551 ft 291 kts 201°
2026-05-01 14:34 38.59872 27.20595 13213 ft 288 kts 201°
2026-05-01 14:34 38.57949 27.19912 12887 ft 286 kts 202°
2026-05-01 14:34 38.56041 27.19231 12562 ft 282 kts 201°
2026-05-01 14:34 38.54091 27.19052 12204 ft 285 kts 176°
2026-05-01 14:35 38.52161 27.19633 11970 ft 285 kts 173°
2026-05-01 14:35 38.50208 27.20222 11614 ft 291 kts 173°
2026-05-01 14:35 38.48204 27.20822 11348 ft 301 kts 173°
2026-05-01 14:35 38.46145 27.21437 10978 ft 306 kts 171°
2026-05-01 14:36 38.44075 27.22061 10642 ft 304 kts 170°
2026-05-01 14:36 38.42032 27.22683 10314 ft 301 kts 170°
2026-05-01 14:36 38.40006 27.23302 10132 ft 294 kts 170°
2026-05-01 14:36 38.38040 27.23899 9893 ft 288 kts 170°
2026-05-01 14:37 38.36099 27.24488 9521 ft 284 kts 170°
2026-05-01 14:37 38.34189 27.25067 9213 ft 280 kts 171°
2026-05-01 14:37 38.32315 27.25627 9099 ft 274 kts 171°
2026-05-01 14:37 38.30461 27.26174 8938 ft 274 kts 171°
2026-05-01 14:38 38.28583 27.26728 8584 ft 278 kts 171°
2026-05-01 14:38 38.26708 27.27285 8263 ft 274 kts 171°
2026-05-01 14:38 38.24885 27.27830 7920 ft 270 kts 170°
2026-05-01 14:38 38.23047 27.28380 7582 ft 266 kts 171°
2026-05-01 14:39 38.21248 27.28920 7267 ft 265 kts 171°
2026-05-01 14:39 38.19476 27.29455 6976 ft 266 kts 170°
2026-05-01 14:39 38.17665 27.30000 6648 ft 268 kts 170°
2026-05-01 14:39 38.15845 27.30544 6308 ft 270 kts 169°
2026-05-01 14:40 38.13998 27.31094 5944 ft 268 kts 169°
2026-05-01 14:40 38.12197 27.31627 5655 ft 264 kts 169°
2026-05-01 14:40 38.10437 27.32043 5334 ft 258 kts 181°
2026-05-01 14:40 38.08753 27.31503 5007 ft 247 kts 214°
2026-05-01 14:41 38.07551 27.30020 4753 ft 240 kts 239°
2026-05-01 14:41 38.06853 27.28132 4490 ft 234 kts 258°
2026-05-01 14:41 38.06469 27.26144 4296 ft 229 kts 262°
2026-05-01 14:41 38.06497 27.24198 4036 ft 218 kts 294°
2026-05-01 14:42 38.07296 27.22676 3822 ft 203 kts 322°
2026-05-01 14:42 38.08463 27.21708 3617 ft 200 kts 343°
2026-05-01 14:42 38.09788 27.21247 3426 ft 196 kts 351°
2026-05-01 14:42 38.11129 27.20863 3109 ft 200 kts 351°
2026-05-01 14:43 38.12485 27.20469 2850 ft 195 kts 351°
2026-05-01 14:43 38.13762 27.20101 2623 ft 180 kts 351°
2026-05-01 14:43 38.14960 27.19758 2423 ft 178 kts 351°
2026-05-01 14:43 38.16169 27.19406 2212 ft 177 kts 351°
2026-05-01 14:44 38.17365 27.19053 2034 ft 174 kts 351°
2026-05-01 14:44 38.19696 27.18362 1749 ft 169 kts 351°
2026-05-01 14:44 38.20839 27.18028 1687 ft 169 kts 348°
2026-05-01 14:45 38.21607 27.17786 1568 ft 168 kts 348°
2026-05-01 14:45 38.23681 27.17119 1193 ft 135 kts 348°
2026-05-01 14:45 38.24563 27.16831 985 ft 132 kts 347°
2026-05-01 14:46 38.25447 27.16552 777 ft 128 kts 353°
2026-05-01 14:46 38.27381 27.15981 1327 ft 164 kts 348°
2026-05-01 14:46 38.28578 27.15583 2173 ft 193 kts 352°
2026-05-01 14:47 38.29950 27.15187 2607 ft 206 kts 351°
2026-05-01 14:47 38.31392 27.14766 2575 ft 213 kts 350°
2026-05-01 14:47 38.32832 27.14344 3266 ft 214 kts 351°
2026-05-01 14:48 38.35713 27.13498 4863 ft 208 kts 349°
2026-05-01 14:48 38.37170 27.13073 5021 ft 231 kts 348°
2026-05-01 14:48 38.40468 27.12377 4982 ft 239 kts
2026-05-01 14:49 38.43120 27.14987 4999 ft 263 kts 60°
2026-05-01 14:49 38.43032 27.19573 5008 ft 272 kts 119°
2026-05-01 14:50 38.40518 27.21917 5019 ft 278 kts 159°
2026-05-01 14:50 38.36150 27.23751 5002 ft 285 kts 161°
2026-05-01 14:51 38.34269 27.24557 4997 ft 285 kts 160°
2026-05-01 14:51 38.30526 27.26172 4993 ft 282 kts 162°
2026-05-01 14:52 38.26757 27.27367 4992 ft 278 kts 166°
2026-05-01 14:52 38.24856 27.27917 4992 ft 275 kts 166°
2026-05-01 14:52 38.21117 27.29013 5003 ft 279 kts 167°
2026-05-01 14:53 38.19207 27.29577 4986 ft 283 kts 167°
2026-05-01 14:53 38.17289 27.30149 4987 ft 281 kts 167°
2026-05-01 14:53 38.15382 27.30718 4986 ft 282 kts 167°
2026-05-01 14:53 38.13471 27.31286 4984 ft 282 kts 167°
2026-05-01 14:54 38.11561 27.31839 4981 ft 278 kts 171°
2026-05-01 14:54 38.09667 27.31752 4974 ft 275 kts 199°
2026-05-01 14:54 38.08046 27.30518 4886 ft 274 kts 228°
2026-05-01 14:54 38.07020 27.28574 4517 ft 256 kts 252°
2026-05-01 14:55 38.06570 27.26500 4302 ft 238 kts 261°
2026-05-01 14:55 38.06453 27.24502 4042 ft 217 kts 290°
2026-05-01 14:55 38.07160 27.22933 3902 ft 204 kts 320°
2026-05-01 14:55 38.08279 27.21867 3688 ft 199 kts 336°
2026-05-01 14:56 38.09564 27.21307 3480 ft 194 kts 348°
2026-05-01 14:56 38.10878 27.20927 3284 ft 191 kts 349°
2026-05-01 14:56 38.12128 27.20574 3097 ft 178 kts 349°
2026-05-01 14:56 38.13333 27.20230 2924 ft 180 kts 349°
2026-05-01 14:57 38.14555 27.19875 2739 ft 177 kts 349°
2026-05-01 14:57 38.16911 27.19177 2405 ft 171 kts 349°
2026-05-01 14:57 38.18060 27.18835 2216 ft 167 kts 349°
2026-05-01 14:58 38.19151 27.18508 2103 ft 153 kts 348°
2026-05-01 14:58 38.20174 27.18203 2041 ft 151 kts 348°
2026-05-01 14:58 38.21205 27.17896 1997 ft 151 kts 348°
2026-05-01 14:58 38.22256 27.17580 1678 ft 160 kts 348°
2026-05-01 14:59 38.23307 27.17265 1285 ft 148 kts 349°
2026-05-01 14:59 38.24228 27.16984 1084 ft 125 kts 349°
2026-05-01 14:59 38.25086 27.16726 948 ft 132 kts 349°
2026-05-01 14:59 38.25966 27.16463 767 ft 129 kts 350°
2026-05-01 15:00 38.27701 27.15938 478 ft 130 kts 351°
2026-05-01 15:00 38.28557 27.15692 418 ft 116 kts 347°
2026-05-01 15:00 38.29171 27.15504 419 ft 63 kts 347°
2026-05-01 15:01 38.29368 27.15440 417 ft 7 kts 322°
2026-05-01 15:01 38.29381 27.15380 417 ft 7 kts 264°
2026-05-01 15:01 38.29370 27.15310 420 ft 9 kts 257°
2026-05-01 15:01 38.29356 27.15233 418 ft 9 kts 257°
2026-05-01 15:02 38.29336 27.15158 414 ft 9 kts 233°
2026-05-01 15:02 38.29317 27.15146 420 ft 9 kts 196°
2026-05-01 15:02 38.29207 27.15170 415 ft 10 kts 167°
2026-05-01 15:02 38.29137 27.15191 414 ft 11 kts 166°
2026-05-01 15:03 38.29064 27.15213 416 ft 11 kts 167°
2026-05-01 15:03 38.29008 27.15275 414 ft 11 kts 122°
2026-05-01 15:03 38.28938 27.15317 413 ft 11 kts 166°
2026-05-01 15:03 38.28860 27.15341 412 ft 11 kts 167°
2026-05-01 15:04 38.28782 27.15364 418 ft 11 kts 166°
2026-05-01 15:04 38.28706 27.15387 418 ft 11 kts 166°
2026-05-01 15:04 38.28628 27.15411 413 ft 10 kts 166°
2026-05-01 15:04 38.28586 27.15364 415 ft 8 kts 254°
2026-05-01 15:05 38.28576 27.15314 417 ft 5 kts 256°
2026-05-01 15:05 38.28574 27.15304 421 ft 0 kts 256°